Back to catalog

FENGYUN 1C DEB

AlivePO
NORAD 31471·DEBRIS·🇨🇳 China

Launched May 10, 1999 from Taiyuan Satellite Launch Center

Loading…

Next Passes (next 24 hours)

TLE

FreshSource: Space-Track

Epoch: Sep 13, 2026, 09:12 UTC

1 31471U 99025BVK 26256.38374210  .00001979  00000-0  90862-3 0  9994
2 31471  97.9572 116.4542 0143891 274.8427  83.6334 14.16913759678644

Track FENGYUN 1C DEB in real time with AllMySat

Download on the App Store